Temp
17 17 17 17 16 16 16 16 16 16 16 16 16 16 16 16 16 16 16 15 15 15 15 15 15 15 15 15 15 15 15 14 14 14 13 13 14 14 14 14 14 14 14
17 17 17 16 16 15 16 16 16 16 16 16 16 16 16 16 16 16 15 15 15 15 15 15 15 14 15 14 15 15 15 14 14 13 12 13 14 14 14 14 14 14 14
17 17 16 16 16 15 15 16 16 16 16 16 16 16 15 15 15 15 15 15 15 14 14 14 14 14 14 14 14 14 14 14 14 13 13 12 14 14 14 14 13 13 14
16 16 16 16 15 15 15 15 15 16 16 16 16 15 15 15 15 15 15 15 14 14 14 14 14 14 14 14 14 14 14 14 14 14 13 12 13 13 13 13 13 13 13
15 15 15 15 15 14 15 15 15 16 15 15 15 15 15 15 15 14 14 14 14 14 14 14 14 14 14 14 14 14 14 15 15 13 14 14 13 13 12 12 12 13 13
15 15 15 14 14 14 14 14 15 15 15 15 15 15 15 15 14 14 14 14 14 14 14 13 13 13 13 14 14 14 14 15 15 14 14 13 13 13 13 13 12 12 13
15 14 14 13 13 14 14 15 15 15 15 15 15 15 14 14 14 14 14 14 14 14 13 13 13 13 13 13 14 14 14 14 14 14 13 13 13 12 12 12 12 12 12
14 14 14 14 14 14 14 14 14 14 14 14 14 14 14 14 14 14 14 14 14 13 13 13 13 13 13 13 13 13 13 13 14 14 13 13 12 12 11 11 11 12 12
13 13 13 14 13 13 13 14 14 14 14 14 14 14 13 13 13 13 13 13 13 13 13 13 13 13 13 12 12 13 13 13 13 13 13 13 12 12 11 11 11 11 11
12 12 12 13 13 13 14 14 14 14 14 14 13 13 13 13 13 13 13 13 13 13 13 13 13 12 12 12 12 12 12 12 13 13 12 12 12 12 11 11 11 10 10
12 12 12 13 13 14 14 14 14 13 13 13 13 13 13 12 12 12 13 13 13 13 13 12 12 12 12 12 11 11 11 12 12 12 12 12 12 11 11 11 10 10 10
12 12 13 13 14 14 14 13 13 13 13 13 13 12 12 12 12 13 13 13 13 12 12 12 12 12 11 11 11 11 11 10 11 11 11 11 11 10 10 10 10 10 10
12 14 13 14 13 12 13 13 13 13 12 12 12 12 12 13 13 12 12 12 12 12 12 12 12 11 11 10 10 10 9 9 10 10 10 10 10 9 9 9 9 9 9
13 13 13 13 13 13 13 13 13 13 12 13 13 13 13 12 12 12 12 12 12 12 12 11 11 11 11 10 10 10 9 9 9 9 9 9 9 8 8 8 8 8 8
14 13 13 13 13 13 13 13 13 13 13 13 12 12 12 12 12 12 12 12 12 12 11 11 11 11 11 10 10 9 9 9 8 9 9 8 8 8 8 7 7 7 6
15 14 13 12 13 13 13 13 13 13 13 13 13 12 12 12 12 12 11 11 12 12 11 11 10 10 9 9 9 9 8 8 8 8 8 8 8 8 8 7 6 6 5
15 13 13 13 12 12 13 13 13 14 13 11 12 12 12 13 13 11 11 12 11 10 10 10 10 8 8 8 8 8 8 8 7 7 7 7 7 7 7 6 6 5 4
15 13 13 12 12 12 13 13 14 14 13 11 11 12 11 11 11 11 11 11 11 10 9 9 8 7 7 7 7 7 7 7 7 6 7 6 7 7 6 6 5 4 3
15 14 13 12 12 13 13 14 14 13 12 12 12 11 10 11 10 10 10 10 10 8 8 7 7 7 6 6 6 6 6 6 5 6 6 6 6 6 6 5 4 4 3
15 14 12 12 13 12 13 13 13 12 12 11 11 10 10 11 10 9 9 9 8 7 7 7 6 6 5 5 5 5 5 5 5 5 5 6 6 5 5 4 4 3 2
15 14 13 11 12 12 12 12 12 12 11 11 10 9 10 10 10 9 8 7 7 6 6 6 6 5 5 4 4 4 4 4 4 5 4 4 4 4 4 3 2 2 2
14 13 13 11 11 11 11 11 11 10 10 10 9 10 9 8 7 7 7 7 7 7 6 5 5 4 4 3 3 3 3 3 3 3 4 3 3 2 2 2 2 2 1
14 13 13 11 11 11 11 11 11 10 10 10 10 9 8 8 7 7 6 6 6 5 5 4 4 3 3 3 2 2 2 2 2 2 2 2 2 2 1 1 1 1 1
13 13 12 12 12 12 12 12 11 11 11 10 9 8 8 8 8 7 6 6 5 4 4 3 3 3 3 2 2 2 2 2 1 1 1 1 1 1 1 0 0 0 -0
12 12 12 12 12 12 12 12 11 11 10 10 9 8 9 8 7 6 6 5 5 4 3 3 3 2 2 1 1 1 1 1 1 0 -0 -1 -0 -0 -1 -0 -1 -1 -1
12 12 12 12 12 11 11 11 11 10 9 9 8 9 7 7 7 6 5 5 5 3 3 2 2 2 2 1 1 0 -0 -0 -0 -1 -1 -1 -1 -1 -1 -1 -1 -2 -2
Height
1516 1520 1525 1531 1534 1538 1540 1541 1545 1547 1549 1551 1551 1553 1554 1556 1557 1556 1557 1558 1559 1560 1560 1560 1561 1560 1560 1560 1562 1561 1560 1560 1561 1560 1560 1560 1559 1559 1559 1559 1557 1557 1556
1514 1518 1524 1530 1535 1539 1541 1543 1547 1549 1551 1552 1553 1554 1556 1557 1559 1559 1560 1560 1561 1562 1562 1564 1562 1563 1561 1561 1562 1562 1562 1563 1563 1562 1562 1562 1561 1559 1560 1560 1558 1558 1557
1516 1518 1526 1529 1536 1540 1542 1542 1548 1548 1553 1555 1556 1557 1558 1560 1559 1562 1563 1563 1563 1564 1564 1566 1564 1565 1564 1563 1563 1564 1564 1565 1565 1565 1565 1563 1562 1560 1560 1560 1559 1558 1557
1519 1521 1526 1531 1537 1541 1542 1545 1550 1550 1553 1556 1556 1558 1560 1563 1563 1564 1565 1565 1565 1566 1566 1567 1568 1567 1566 1567 1566 1567 1567 1568 1567 1567 1569 1567 1563 1563 1560 1561 1561 1560 1557
1521 1525 1528 1533 1538 1542 1542 1546 1551 1553 1555 1556 1558 1559 1562 1565 1565 1565 1566 1566 1567 1568 1569 1569 1570 1570 1570 1571 1570 1571 1570 1570 1568 1567 1567 1567 1566 1565 1563 1561 1562 1560 1559
1521 1528 1531 1538 1539 1544 1543 1548 1554 1555 1558 1557 1559 1561 1564 1565 1566 1568 1568 1569 1569 1570 1571 1571 1572 1572 1574 1573 1573 1573 1573 1571 1570 1568 1568 1569 1567 1566 1564 1563 1562 1561 1560
1523 1529 1533 1538 1543 1544 1548 1551 1555 1557 1561 1560 1560 1563 1565 1567 1568 1570 1571 1571 1572 1572 1574 1573 1573 1573 1575 1575 1574 1573 1572 1573 1571 1570 1568 1569 1568 1567 1566 1565 1563 1561 1560
1523 1528 1533 1539 1542 1548 1553 1555 1557 1560 1562 1562 1562 1565 1566 1569 1571 1573 1572 1574 1575 1575 1574 1576 1576 1576 1575 1577 1577 1575 1575 1573 1574 1573 1568 1568 1568 1568 1566 1565 1564 1562 1560
1526 1530 1531 1540 1545 1549 1556 1557 1559 1561 1563 1563 1565 1567 1569 1571 1572 1575 1576 1577 1577 1577 1578 1576 1577 1577 1578 1578 1577 1579 1577 1574 1574 1574 1572 1569 1568 1567 1566 1565 1563 1562 1561
1528 1532 1535 1541 1542 1550 1554 1558 1561 1563 1565 1565 1567 1570 1571 1573 1575 1575 1575 1578 1578 1581 1579 1578 1578 1578 1579 1577 1577 1579 1578 1575 1575 1573 1572 1570 1568 1567 1566 1565 1563 1562 1561
1530 1536 1534 1541 1547 1551 1555 1558 1562 1564 1566 1567 1569 1570 1572 1574 1574 1576 1576 1577 1578 1580 1579 1579 1578 1579 1579 1578 1578 1578 1576 1575 1574 1574 1571 1569 1567 1566 1565 1563 1561 1560 1559
1530 1531 1538 1545 1546 1551 1556 1560 1563 1565 1568 1569 1573 1572 1575 1576 1576 1577 1577 1577 1579 1579 1579 1579 1580 1579 1578 1578 1577 1576 1576 1574 1573 1572 1569 1567 1566 1564 1562 1560 1559 1558 1558
1532 1539 1541 1543 1547 1553 1558 1561 1563 1566 1569 1571 1572 1574 1574 1574 1577 1576 1576 1578 1577 1578 1579 1579 1581 1579 1577 1576 1576 1574 1573 1572 1572 1571 1568 1565 1563 1562 1560 1558 1556 1555 1554
1538 1540 1543 1547 1551 1556 1557 1561 1563 1566 1570 1572 1571 1571 1573 1572 1574 1576 1575 1577 1576 1578 1578 1579 1580 1578 1576 1577 1575 1573 1572 1569 1569 1568 1566 1562 1561 1559 1557 1555 1553 1552 1550
1537 1542 1544 1548 1552 1554 1559 1561 1561 1565 1568 1569 1569 1570 1570 1571 1573 1572 1572 1573 1572 1575 1576 1577 1575 1575 1574 1573 1572 1571 1570 1567 1567 1566 1565 1560 1558 1556 1554 1552 1550 1549 1547
1537 1541 1544 1547 1550 1554 1557 1558 1561 1564 1565 1565 1564 1566 1569 1570 1569 1570 1571 1572 1572 1572 1573 1573 1572 1572 1571 1570 1569 1569 1568 1565 1564 1562 1561 1558 1555 1555 1550 1549 1547 1545 1543
1537 1540 1544 1547 1551 1553 1555 1557 1560 1562 1561 1563 1564 1565 1567 1566 1566 1567 1567 1569 1569 1568 1570 1570 1570 1570 1569 1568 1566 1566 1563 1562 1559 1558 1556 1555 1554 1550 1548 1546 1544 1543 1541
1538 1540 1544 1548 1549 1550 1555 1558 1558 1558 1559 1560 1562 1561 1561 1563 1563 1565 1566 1567 1568 1568 1568 1567 1568 1566 1565 1564 1561 1561 1559 1556 1556 1555 1552 1551 1551 1549 1545 1544 1542 1539 1538
1536 1538 1544 1548 1547 1550 1555 1555 1555 1558 1558 1559 1560 1560 1560 1562 1562 1564 1565 1566 1566 1566 1566 1565 1564 1563 1560 1559 1557 1556 1554 1553 1551 1550 1549 1549 1549 1546 1544 1541 1539 1537 1536
1533 1537 1542 1545 1546 1549 1552 1553 1555 1556 1555 1557 1558 1560 1559 1560 1562 1563 1563 1564 1563 1564 1563 1562 1560 1558 1556 1554 1552 1551 1550 1548 1547 1546 1545 1545 1543 1541 1540 1538 1535 1533 1532
1530 1534 1538 1542 1546 1547 1550 1551 1551 1552 1553 1555 1558 1558 1559 1560 1561 1563 1562 1562 1561 1561 1560 1559 1557 1554 1552 1551 1548 1547 1545 1544 1543 1543 1540 1539 1538 1537 1536 1533 1531 1530 1529
1529 1530 1535 1540 1543 1545 1548 1550 1551 1551 1553 1556 1556 1557 1557 1559 1560 1560 1559 1559 1558 1557 1557 1556 1553 1551 1550 1550 1548 1545 1541 1541 1541 1538 1537 1535 1534 1532 1531 1530 1530 1529 1526
1527 1530 1534 1538 1541 1544 1547 1549 1551 1552 1553 1554 1555 1555 1555 1557 1558 1558 1558 1556 1555 1554 1553 1551 1551 1549 1547 1546 1547 1546 1541 1538 1536 1536 1536 1535 1531 1529 1528 1528 1527 1525 1522
1525 1529 1533 1537 1539 1542 1545 1548 1549 1550 1551 1553 1555 1554 1555 1556 1556 1556 1556 1555 1553 1551 1549 1549 1548 1546 1545 1543 1543 1542 1541 1538 1534 1530 1531 1530 1529 1527 1525 1525 1523 1520 1518
1525 1528 1532 1535 1538 1542 1545 1546 1548 1548 1549 1550 1551 1552 1554 1554 1555 1556 1555 1552 1550 1548 1546 1545 1544 1542 1540 1538 1536 1535 1536 1534 1532 1530 1524 1525 1525 1525 1522 1521 1518 1516 1514
1524 1527 1530 1533 1537 1539 1542 1544 1546 1545 1546 1547 1549 1551 1553 1552 1553 1552 1550 1548 1546 1544 1542 1541 1540 1538 1535 1534 1533 1531 1530 1528 1526 1524 1523 1522 1520 1519 1518 1515 1513 1511 1510
Wind_Speed
23 28 25 22 22 21 19 18 16 13 12 11 10 10 10 10 11 13 14 14 14 14 14 14 14 15 15 15 14 15 15 16 16 14 12 15 13 10 9 8 8 10 8
28 30 26 24 22 21 20 17 14 12 11 10 10 10 10 11 12 13 13 13 13 13 13 13 14 14 15 15 16 16 18 18 15 14 11 17 17 13 10 10 9 9 9
29 31 27 25 23 21 19 16 13 13 10 10 10 10 11 12 12 12 12 11 12 14 15 15 17 17 18 18 18 19 20 19 15 12 14 15 18 13 11 12 11 9 9
30 31 29 25 23 20 18 15 13 12 11 10 10 11 11 11 11 10 10 12 15 17 19 20 21 21 22 21 21 20 20 18 16 11 11 16 16 12 13 13 11 9 8
27 27 27 24 21 18 17 14 12 11 10 10 11 12 12 11 10 11 12 16 18 19 20 22 22 23 24 23 22 19 18 18 16 13 8 7 10 13 13 13 13 12 10
28 27 25 21 18 16 15 13 11 11 10 11 12 12 11 11 11 13 15 16 17 19 20 21 22 22 21 21 21 19 16 20 20 9 9 14 16 15 14 13 13 13 13
27 25 25 20 17 14 13 12 12 10 9 11 12 12 12 12 13 14 15 15 16 17 18 18 19 19 21 22 22 19 16 16 16 16 10 12 20 18 16 14 14 13 12
25 24 25 20 17 13 13 13 11 10 10 11 12 12 13 13 14 13 14 14 14 14 14 14 16 17 19 21 25 21 20 16 16 13 7 11 19 20 16 15 14 14 13
24 24 26 24 22 20 15 13 11 10 11 12 12 13 13 12 12 11 11 11 11 10 10 10 11 14 16 19 21 18 19 19 17 15 14 17 18 21 17 15 15 15 14
26 16 25 22 20 18 16 13 11 10 11 13 13 13 13 12 9 7 7 6 7 6 6 7 8 12 14 16 17 17 14 16 15 15 17 19 21 23 20 16 15 14 14
24 25 24 20 16 15 14 13 11 11 12 13 14 16 12 12 9 5 8 5 4 5 7 8 10 11 12 14 14 14 10 16 12 14 18 19 21 24 23 19 16 15 14
18 20 26 22 16 13 14 14 13 15 14 12 12 11 8 6 4 4 6 8 7 10 8 12 13 10 6 10 8 14 14 16 7 8 17 21 22 24 24 22 19 17 17
25 25 24 23 20 14 15 14 17 15 13 7 9 8 9 6 3 4 1 5 10 8 8 10 12 8 16 13 13 14 17 12 11 13 16 20 22 23 24 26 23 20 18
28 25 25 23 22 14 19 16 14 17 15 11 9 7 6 4 6 5 4 6 3 4 7 7 6 10 8 12 14 15 16 16 15 17 17 20 22 23 26 24 25 23 20
23 23 19 25 22 22 18 21 22 18 14 10 7 4 6 7 6 7 9 6 5 5 5 8 8 14 18 15 17 17 18 19 18 16 18 21 23 24 23 22 21 21 21
22 19 15 21 23 22 24 20 19 14 12 10 9 4 1 6 8 10 7 5 10 12 14 14 19 20 18 12 15 15 17 18 18 19 20 21 24 25 23 18 17 20 22
20 19 20 19 24 24 24 22 20 15 12 9 5 12 7 11 8 6 7 6 11 10 14 17 19 12 12 15 16 18 20 21 23 22 23 22 18 23 20 19 22 21 25
20 21 20 23 24 22 22 22 16 11 8 7 12 13 2 5 4 4 6 9 8 11 14 17 11 13 17 16 18 22 20 23 26 20 19 22 20 22 18 19 18 17 20
20 23 22 24 24 21 26 24 15 18 18 17 17 5 2 2 1 3 7 7 8 6 9 10 14 19 20 24 21 19 23 26 17 20 18 15 13 13 12 14 16 19 18
21 22 21 24 21 23 26 26 13 17 17 11 7 3 1 1 3 1 8 9 8 4 9 15 20 22 22 21 22 21 19 20 20 17 17 12 13 13 11 19 21 18 16
21 19 18 23 21 24 22 18 11 6 5 6 5 6 5 3 3 4 6 4 8 11 14 17 18 19 24 16 22 21 21 21 14 15 14 14 14 17 17 18 16 22 25
22 22 18 22 15 18 15 9 5 7 8 8 9 6 6 4 4 3 9 11 14 17 18 14 18 20 18 18 18 23 21 25 16 20 21 22 17 18 18 20 22 21 25
20 19 16 18 11 12 11 13 13 11 15 13 4 3 6 4 4 7 10 14 17 16 15 17 20 17 17 18 14 17 24 19 27 23 20 21 23 23 21 20 23 22 22
18 16 17 15 14 14 16 15 16 13 12 10 11 13 3 10 11 11 10 14 15 19 21 17 15 19 23 18 19 18 19 25 26 27 16 20 21 20 21 22 23 19 20
18 20 18 18 17 19 18 17 15 14 18 15 12 7 4 7 5 8 10 14 15 17 19 19 21 20 19 18 20 24 23 21 19 19 25 24 23 21 22 23 25 24 24
21 20 20 20 21 18 16 16 17 15 12 10 8 5 3 10 9 12 17 21 22 17 17 18 17 21 23 24 26 22 23 22 19 18 21 23 23 25 23 24 29 28 26
Wind_Direction
163 150 146 145 144 143 138 130 125 121 117 113 98 82 76 72 74 75 72 69 67 65 60 55 51 48 47 47 46 49 50 56 63 54 53 46 40 20 27 25 4 10 13
158 146 147 145 144 143 139 129 127 124 118 110 98 89 85 87 83 80 77 75 69 65 60 54 51 47 47 46 48 54 61 69 68 50 53 35 24 14 16 19 15 13 12
155 146 149 145 146 146 139 131 132 126 119 106 96 97 99 97 94 85 78 71 65 62 62 60 58 54 51 51 55 61 73 76 67 45 55 20 5 5 25 26 19 12 12
156 149 152 148 150 146 137 132 137 127 123 115 112 112 108 101 94 86 77 72 70 69 68 67 65 62 60 57 62 74 74 73 69 74 71 39 1 23 26 21 21 23 359
156 156 151 149 148 141 135 130 134 132 128 121 120 117 112 103 91 87 86 85 82 78 74 71 68 64 61 59 62 73 65 54 50 82 9 352 347 21 18 15 11 12 12
152 155 146 146 141 143 127 131 138 133 134 129 123 119 113 104 97 94 93 91 87 82 78 75 71 66 60 55 52 60 68 64 53 29 353 2 23 25 19 12 7 5 1
157 152 145 140 147 132 126 143 146 138 139 129 126 123 112 104 101 100 97 93 87 83 78 75 69 62 53 45 40 46 58 62 57 11 358 357 17 10 14 13 8 7 3
152 148 148 147 138 133 149 152 142 141 138 132 126 119 109 104 103 101 100 93 87 82 80 73 63 54 43 35 36 45 43 47 47 22 9 2 360 356 356 358 360 1 1
155 157 159 155 148 154 153 144 144 144 141 128 122 115 106 102 102 99 93 90 84 82 77 70 55 41 30 27 24 36 33 27 38 8 346 347 350 351 345 341 344 344 345
157 163 140 154 143 148 147 144 142 139 132 129 120 107 96 78 78 78 88 84 68 54 54 49 39 32 26 19 17 23 20 12 33 348 340 332 332 335 340 338 333 328 327
165 165 160 133 145 144 144 141 142 138 132 122 117 94 88 58 42 42 25 42 38 22 16 14 18 30 26 12 3 7 343 347 20 344 330 328 323 324 332 330 331 327 322
144 167 137 139 126 135 148 140 132 116 112 112 106 87 105 125 129 336 17 18 19 17 15 14 3 15 1 335 316 319 336 346 356 328 316 324 320 320 326 326 322 319 316
134 138 135 134 134 145 145 123 113 102 106 121 138 160 149 164 119 348 276 26 14 4 18 359 354 323 329 350 343 337 333 335 339 316 315 320 323 325 326 324 319 313 307
135 136 143 144 143 142 116 115 121 143 163 169 180 169 158 147 183 173 95 130 80 48 356 325 337 330 330 333 319 321 327 325 337 332 316 308 313 321 324 320 319 315 308
123 135 143 145 153 135 139 150 158 171 179 173 164 153 170 190 200 206 225 212 221 285 298 282 282 298 298 301 306 314 318 327 329 325 319 321 317 317 317 315 313 315 313
137 155 163 146 145 143 156 163 167 166 168 182 192 183 217 291 267 280 232 259 288 299 283 293 313 313 316 329 327 314 319 318 312 308 307 310 303 311 303 306 313 312 316
149 154 150 151 143 167 168 173 158 155 175 194 285 306 298 290 276 245 253 270 275 287 285 300 312 313 311 322 309 312 317 308 297 306 310 302 312 314 298 309 314 314 316
155 153 157 147 170 175 174 153 152 177 233 328 343 341 96 192 190 214 270 280 293 290 308 312 327 291 312 310 310 317 312 298 304 317 311 306 290 300 302 312 306 319 325
164 165 158 162 185 185 161 160 178 228 261 273 303 285 135 157 172 250 267 289 309 310 318 302 280 306 314 314 312 310 305 308 311 308 314 318 319 283 274 303 290 307 330
176 176 180 184 189 177 177 185 233 246 251 249 276 190 176 123 191 226 303 312 321 288 279 289 312 318 313 315 308 310 307 304 315 326 331 300 277 282 296 300 301 300 294
184 184 189 197 196 188 193 209 265 243 212 209 174 180 157 227 240 199 191 251 294 298 303 312 307 303 312 315 317 307 315 318 306 304 298 304 318 321 297 301 310 316 311
181 191 200 206 212 199 197 210 203 159 140 150 208 177 209 182 222 301 293 296 292 299 308 308 304 312 308 309 310 313 321 315 318 298 296 317 312 310 320 304 307 311 305
192 194 210 204 206 182 170 158 163 162 167 190 219 194 206 220 237 293 301 300 302 305 303 303 310 310 297 290 317 308 316 315 316 317 310 304 301 300 313 316 314 305 308
196 208 193 188 176 167 161 165 170 189 190 181 163 176 243 299 303 301 303 314 310 306 309 306 292 286 289 297 297 287 285 303 315 317 312 303 301 303 308 315 315 316 312
197 175 174 184 158 170 168 187 181 179 174 176 183 198 273 308 307 299 279 272 272 282 294 296 300 290 288 282 282 291 291 298 293 300 312 313 305 303 307 310 313 312 313
176 173 170 157 175 176 188 183 186 196 169 194 202 265 230 234 265 267 268 270 284 294 293 285 288 284 272 284 289 296 287 284 286 288 291 298 302 302 306 298 299 303 307